Airfield :
LOGIN :

Register | Disclaimer

   EN    FR    IT 

 










Legend :    VFR   Marginal VFR   IFR   Intensive IFR   Very Intensive IFR
Visi :
Ceiling :
>= 8 km
>= 3000ft
5 to 8 km
1000 to 3000 ft
1500m to 5 km
500 to 1000 ft
800 to 1500m
200 to 500 ft
< 800m
< 200 ft
Symbols :   Thunderstorms  Fog  Heavy snow  Heavy precipitations  Wind > 20 kt
SIGMETs :     Misc.  Thunderstorms  Icing  Turbulence  Mountain Waves  Volcanic Ashes






- Airport Elevation : 36 ft
- IATA code : GJL


DAAV - Jijel Ferhat Abbas

CURRENT METAR :
  • 311900Z 16004KT 8000 TS SCT026CB BKN040 29/18 Q1012

EXPIRED METARs :
  • 311800Z 20005KT 160V260 8000 TS SCT026CB BKN033 29/17 Q1012
  • 311700Z 35008KT 9999 TS FEW026CB SCT033 30/19 Q1010

TAF TAF DAAV
Valid from the 31 at 18:00 until the 01 at 18:00 UTC


311700Z 3118/0118 20008KT 8000 FEW023 SCT100
TEMPO 3118/0106 27014KT FEW020CB
TEMPO 3118/3124 28015G25KT 5000 TSRA
PROB40
TEMPO 0106/0118 FEW026CB
BECMG 0106/0109 28014KT



MET'MAP, your aeronautical weather chart ! - Copyright ORBIFLY December 2007 - Disclaimer

ORBIFLY MET'MAP TEAM :

Programming & Development : Alexandra Zaïnal
Concept & original design : Baudouin d'Aumeries
Assistance for programming : Marc-Olivier Méhu
Technical & hardware support : Manuel Goepfert

Contact : metmap@orbifly.com




SOURCES & CREDITS :

   NOAA